Weather History for Tillamook, OR

Change the Weather History Date:

Sunday, February 17, 2013

  Actual Average (KMMV) Record (KMMV)
Temperature  
Mean Temperature 42 °F 43 °F  
Max Temperature 48 °F 51 °F 65 °F (1996)
Min Temperature 37 °F 35 °F 23 °F (1920)
Degree Days  
Heating Degree Days 22 22  
Month to date heating degree days 388  
Since 1 July heating degree days 3143  
Cooling Degree Days 0 0  
Month to date cooling degree days 0  
Year to date cooling degree days 0  
Moisture  
Dew Point 39 °F    
Average Humidity 92    
Maximum Humidity 100    
Minimum Humidity 66    
Precipitation  
Precipitation 0.05 in 0.12 in 2.33 in (1949)
Month to date precipitation 2.87  
Year to date precipitation 8.97  
Sea Level Pressure  
Sea Level Pressure 30.26 in    
Wind  
Wind Speed 2 mph (SSE)    
Max Wind Speed 9 mph    
Max Gust Speed -    
Visibility 8 miles    
Events Rain    
T = Trace of Precipitation, MM = Missing Value Source: NWS Daily Summary

Daily Weather History Graph

Daily Weather History Graph

Search for Another Location

Airport:

Trip Planner

Search our weather history database for the weather conditions in past years. The results will help you decide how hot, cold, wet, or windy it might be!

Date:

Astronomy

Feb. 17, 2013 Rise Set
Actual Time 8:13 AM MST 6:45 PM MST
Civil Twilight 7:42 AM MST 7:16 PM MST
Nautical Twilight 7:08 AM MST 7:50 PM MST
Astronomical Twilight 6:34 AM MST 8:25 PM MST
Moon 11:47 AM MST (2/17) 2:09 AM MST (2/17)
Length of Visible Light 11h 33m
Length of Day
10h 32m
Waxing Crescent, 49% of the Moon is Illuminated
Feb 17
Waxing Crescent
Feb 17
First Quarter
Feb 25
Full
Mar 4
Last Quarter
Mar 11
New

Hourly Weather History & Observations

Time (MST) Temp. Windchill Dew Point Humidity Pressure Visibility Wind Dir Wind Speed Gust Speed Precip Events Conditions
12:15 AM 41.0 °F - 41.0 °F 100% 30.31 in 10.0 mi Calm Calm - N/A   Mostly Cloudy
12:35 AM 41.0 °F 38.0 °F 41.0 °F 100% 30.31 in 10.0 mi SE 4.6 mph - N/A   Mostly Cloudy
12:55 AM 41.0 °F 39.0 °F 39.2 °F 93% 30.30 in 10.0 mi South 3.5 mph - N/A   Scattered Clouds
1:15 AM 41.0 °F - 41.0 °F 100% 30.31 in 3.0 mi Calm Calm - N/A   Light Drizzle
1:35 AM 41.0 °F - 41.0 °F 100% 30.31 in 5.0 mi Calm Calm - N/A   Overcast
1:55 AM 41.0 °F 39.0 °F 41.0 °F 100% 30.32 in 5.0 mi SSE 3.5 mph - N/A   Overcast
2:15 AM 41.0 °F 39.0 °F 41.0 °F 100% 30.31 in 10.0 mi SSE 3.5 mph - N/A   Overcast
2:35 AM 41.0 °F - 41.0 °F 100% 30.32 in 10.0 mi Calm Calm - N/A   Overcast
2:55 AM 39.2 °F - 39.2 °F 100% 30.32 in 7.0 mi Calm Calm - N/A   Scattered Clouds
3:15 AM 39.2 °F - 39.2 °F 100% 30.32 in 5.0 mi Calm Calm - N/A   Scattered Clouds
3:35 AM 39.2 °F 33.6 °F 37.4 °F 93% 30.33 in 0.5 mi NW 8.1 mph - N/A Rain Light Rain
3:55 AM 39.2 °F 35.9 °F 39.2 °F 100% 30.32 in 5.0 mi East 4.6 mph - 0.01 in Rain Light Rain
4:15 AM 41.0 °F 38.0 °F 41.0 °F 100% 30.31 in 5.0 mi SE 4.6 mph - N/A   Overcast
4:35 AM 39.2 °F 37.0 °F 39.2 °F 100% 30.31 in 7.0 mi South 3.5 mph - N/A   Overcast
4:55 AM 41.0 °F - 41.0 °F 100% 30.31 in 10.0 mi Calm Calm - N/A   Overcast
5:15 AM 41.0 °F 39.0 °F 41.0 °F 100% 30.30 in 10.0 mi SE 3.5 mph - 0.01 in   Overcast
5:35 AM 39.2 °F 35.9 °F 39.2 °F 100% 30.30 in 10.0 mi SE 4.6 mph - 0.01 in   Mostly Cloudy
5:55 AM 39.2 °F - 39.2 °F 100% 30.30 in 10.0 mi Calm Calm - 0.01 in   Scattered Clouds
6:15 AM 39.2 °F - 39.2 °F 100% 30.31 in 10.0 mi Calm Calm - N/A   Mostly Cloudy
6:35 AM 39.2 °F - 39.2 °F 100% 30.30 in 10.0 mi Calm Calm - N/A   Overcast
6:55 AM 39.2 °F - 39.2 °F 100% 30.30 in 7.0 mi Calm Calm - N/A   Overcast
7:15 AM 37.4 °F - 37.4 °F 100% 30.30 in 10.0 mi Calm Calm - N/A   Overcast
7:35 AM 39.2 °F 37.0 °F 39.2 °F 100% 30.30 in 10.0 mi SE 3.5 mph - N/A   Overcast
7:55 AM 39.2 °F - 39.2 °F 100% 30.30 in 10.0 mi Calm Calm - N/A Rain Rain
8:15 AM 39.2 °F 37.0 °F 39.2 °F 100% 30.30 in 7.0 mi WNW 3.5 mph - N/A   Overcast
8:35 AM 39.2 °F - 39.2 °F 100% 30.30 in 4.0 mi Calm Calm - 0.01 in Rain Rain
8:55 AM 39.2 °F 35.0 °F 39.2 °F 100% 30.30 in 5.0 mi ESE 5.8 mph - 0.01 in Rain Light Rain
9:15 AM 39.2 °F - 39.2 °F 100% 30.31 in 5.0 mi Calm Calm - N/A   Overcast
9:35 AM 41.0 °F - 41.0 °F 100% 30.31 in 10.0 mi Calm Calm - N/A   Overcast
9:55 AM 41.0 °F - 41.0 °F 100% 30.31 in 10.0 mi Calm Calm - N/A   Overcast
10:15 AM 41.0 °F - 41.0 °F 100% 30.30 in 10.0 mi Calm Calm - N/A   Light Drizzle
10:35 AM 42.8 °F - 41.0 °F 93% 30.30 in 10.0 mi Calm Calm - N/A   Overcast
10:55 AM 42.8 °F - 41.0 °F 93% 30.30 in 10.0 mi Calm Calm - N/A   Overcast
11:15 AM 42.8 °F - 41.0 °F 93% 30.30 in 10.0 mi Calm Calm - 0.01 in   Overcast
11:55 AM 46.4 °F - 39.2 °F 76% 30.29 in 10.0 mi Calm Calm - 0.01 in   Overcast
12:15 PM 46.4 °F - 37.4 °F 71% 30.29 in 10.0 mi Calm Calm - N/A   Overcast
12:35 PM 46.4 °F 45.2 °F 37.4 °F 71% 30.29 in 10.0 mi SSW 3.5 mph - N/A   Overcast
12:55 PM 48.2 °F - 37.4 °F 66% 30.28 in 10.0 mi Calm Calm - N/A   Overcast
1:15 PM 46.4 °F 41.9 °F 37.4 °F 71% 30.28 in 10.0 mi NW 9.2 mph - N/A Rain Light Rain
1:35 PM 44.6 °F - 39.2 °F 81% 30.28 in 5.0 mi Calm Calm - 0.01 in Rain Rain
1:55 PM 44.6 °F 42.2 °F 39.2 °F 81% 30.27 in 10.0 mi East 4.6 mph - 0.01 in   Overcast
2:15 PM 46.4 °F - 37.4 °F 71% 30.26 in 10.0 mi Calm Calm - N/A   Mostly Cloudy
2:35 PM 46.4 °F 45.2 °F 37.4 °F 71% 30.26 in 10.0 mi ESE 3.5 mph - N/A   Mostly Cloudy
2:55 PM 46.4 °F - 37.4 °F 71% 30.25 in 10.0 mi Calm Calm - N/A   Overcast
3:15 PM 46.4 °F 44.3 °F 37.4 °F 71% 30.25 in 10.0 mi South 4.6 mph - N/A   Overcast
3:35 PM 46.4 °F 45.2 °F 39.2 °F 76% 30.24 in 10.0 mi South 3.5 mph - N/A   Overcast
3:55 PM 46.4 °F 43.5 °F 39.2 °F 76% 30.24 in 10.0 mi SE 5.8 mph - N/A   Mostly Cloudy
4:15 PM 46.4 °F 42.9 °F 39.2 °F 76% 30.23 in 10.0 mi SE 6.9 mph - N/A   Scattered Clouds
4:35 PM 44.6 °F 40.7 °F 39.2 °F 81% 30.23 in 10.0 mi SSE 6.9 mph - N/A   Scattered Clouds
4:55 PM 44.6 °F 41.4 °F 39.2 °F 81% 30.23 in 10.0 mi SE 5.8 mph - N/A   Mostly Cloudy
5:15 PM 44.6 °F 43.1 °F 39.2 °F 81% 30.22 in 10.0 mi SSE 3.5 mph - N/A   Mostly Cloudy
5:55 PM 44.6 °F - 39.2 °F 81% 30.21 in 10.0 mi Calm Calm - N/A   Clear
6:15 PM 44.6 °F - 39.2 °F 81% 30.20 in 10.0 mi Calm Calm - N/A   Scattered Clouds
6:35 PM 44.6 °F - 41.0 °F 87% 30.20 in 10.0 mi Calm Calm - N/A   Scattered Clouds
6:55 PM 42.8 °F - 39.2 °F 87% 30.19 in 10.0 mi Calm Calm - N/A   Clear
7:15 PM 42.8 °F - 41.0 °F 93% 30.19 in 7.0 mi Calm Calm - N/A   Clear
7:35 PM 42.8 °F - 41.0 °F 93% 30.18 in 7.0 mi Calm Calm - N/A   Clear
8:15 PM 41.0 °F - 41.0 °F 100% 30.19 in 7.0 mi Calm Calm - N/A   Clear
8:35 PM 41.0 °F - 41.0 °F 100% 30.19 in 7.0 mi Calm Calm - N/A   Clear
8:55 PM 39.2 °F - 39.2 °F 100% 30.18 in 5.0 mi Calm Calm - N/A   Clear
9:15 PM 41.0 °F - 39.2 °F 93% 30.18 in 10.0 mi Calm Calm - N/A   Clear
9:35 PM 39.2 °F - 39.2 °F 100% 30.17 in 3.0 mi Calm Calm - N/A   Clear
9:55 PM 39.2 °F - 39.2 °F 100% 30.17 in 0.8 mi Calm Calm - N/A   Mostly Cloudy
10:15 PM 39.2 °F - 39.2 °F 100% 30.17 in 7.0 mi Calm Calm - N/A   Overcast
10:35 PM 39.2 °F - 39.2 °F 100% 30.16 in 5.0 mi Calm Calm - N/A   Overcast
10:55 PM 39.2 °F - 39.2 °F 100% 30.16 in 5.0 mi Calm Calm - N/A   Overcast
11:15 PM 37.4 °F - 37.4 °F 100% 30.15 in 10.0 mi Calm Calm - N/A   Mostly Cloudy
11:35 PM 37.4 °F - 37.4 °F 100% 30.14 in 10.0 mi Calm Calm - N/A   Mostly Cloudy
11:55 PM 37.4 °F - 37.4 °F 100% 30.13 in 10.0 mi Calm Calm - N/A   Scattered Clouds